Cochabamba, Bolivia

12:03 AM -04 on June 27, 2017 (GMT -0400)
Jorge Wilsterman

Weather History for SLCB - October, 2012

Change the Weather History Date:

Saturday, October 6, 2012

  Actual Average Record
Temperature  
Mean Temperature 64 °F -  
Max Temperature 79 °F 79 °F 88 °F (2015)
Min Temperature 50 °F 51 °F 35 °F (1999)
Growing Degree Days 14 (Base 50)    
Moisture  
Dew Point 45 °F    
Average Humidity 50    
Maximum Humidity 82    
Minimum Humidity 20    
Precipitation  
Precipitation 0.00 in - - ()
Sea Level Pressure  
Sea Level Pressure 30.16 in    
Wind  
Wind Speed 4 mph ()    
Max Wind Speed 17 mph    
Max Gust Speed 30 mph    
Visibility 6.9 miles    
Events Rain , Thunderstorm    
Averages and records for this station are not official NWS values.
T = Trace of Precipitation, MM = Missing Value Source: Averaged Metar Reports

Daily Weather History Graph

Daily Weather History Graph

Search for Another Location

Airport or City:

Trip Planner

Search our weather history database for the weather conditions in past years. The results will help you decide how hot, cold, wet, or windy it might be!

Date:

Astronomy

Oct. 06, 2012 Rise Set
Actual Time 6:02 AM -04 6:23 PM -04
Civil Twilight 5:40 AM -04 6:44 PM -04
Nautical Twilight 5:15 AM -04 7:10 PM -04
Astronomical Twilight 4:49 AM -04 7:35 PM -04
Moon 11:53 PM -04 (10/6) 10:32 AM -04 (10/6)
Length of Visible Light 13h 04m
Length of Day
12h 20m
Waning Gibbous, 65% of the Moon is Illuminated
Oct 6
Waning Gibbous
Oct 8
Last Quarter
Oct 15
New
Oct 21
First Quarter
Oct 29
Full

Hourly Weather History & Observations

Time (-04) Temp. Dew Point Humidity Pressure Visibility Wind Dir Wind Speed Gust Speed Precip Events Conditions
12:00 AM 62.6 °F 44.6 °F 52% 30.18 in 6.2 mi WSW 4.6 mph - N/A   Partly Cloudy
1:00 AM 62.6 °F 44.6 °F 52% 30.18 in 6.2 mi East 5.8 mph - N/A   Scattered Clouds
2:00 AM 62 °F 45 °F 43%  in 12 mi Calm Calm - -   Smoke
2:00 AM 60.8 °F 44.6 °F 55% 30.15 in 6.2 mi Calm Calm - N/A   Scattered Clouds
3:00 AM 60.8 °F 44.6 °F 55% 30.15 in 6.2 mi Calm Calm - N/A   Scattered Clouds
4:00 AM 55.4 °F 46.4 °F 72% 30.12 in 6.2 mi Calm Calm - N/A   Partly Cloudy
5:00 AM 55.4 °F 44.6 °F 67% 30.15 in 5.0 mi Calm Calm - N/A   Partly Cloudy
6:00 AM 51.8 °F 46.4 °F 82% 30.18 in 4.3 mi Calm Calm - N/A   Partly Cloudy
7:00 AM 57.2 °F 46.4 °F 67% 30.18 in 4.3 mi SE 4.6 mph - N/A   Partly Cloudy
8:00 AM 66 °F 48 °F 41%  in 12 mi SSW 4.6 mph - -   Smoke
8:00 AM 66.2 °F 48.2 °F 52% 30.18 in 6.2 mi ESE 4.6 mph - N/A   Partly Cloudy
9:00 AM 71.6 °F 48.2 °F 43% 30.21 in 6.2 mi East 3.5 mph - N/A   Partly Cloudy
10:00 AM 75.2 °F 46.4 °F 36% 30.18 in 6.2 mi South 8.1 mph - N/A   Partly Cloudy
11:00 AM 77 °F 43 °F 20%  in 12 mi East 3.5 mph - -   Smoke
11:00 AM 77.0 °F 42.8 °F 29% 30.18 in 6.2 mi East 3.5 mph - N/A   Partly Cloudy
12:00 PM 75.2 °F 42.8 °F 31% 30.15 in 6.2 mi NE 5.8 mph - N/A   Scattered Clouds
1:00 PM 73.4 °F 46.4 °F 38% 30.12 in 6.2 mi NNE 12.7 mph - N/A   Scattered Clouds
2:00 PM 72 °F 46 °F 28%  in 12 mi North 12.7 mph - -   Partly Cloudy
2:00 PM 71.6 °F 46.4 °F 41% 30.09 in 6.2 mi North 12.7 mph - N/A   Mostly Cloudy
2:30 PM 71.6 °F 41.0 °F 33% 30.09 in 5.0 mi NNE 16.1 mph 27.6 mph N/A   Mostly Cloudy
3:00 PM 68.0 °F 39.2 °F 35% 30.12 in 5.0 mi NE 17.3 mph 29.9 mph N/A Thunderstorm Thunderstorm
3:33 PM 62.6 °F 46.4 °F 55% 30.15 in 3.7 mi NW 16.1 mph 29.9 mph N/A Rain , Thunderstorm Light Thunderstorms and Rain
4:00 PM 60.8 °F 48.2 °F 63% 30.15 in 5.0 mi South 11.5 mph - N/A   Mostly Cloudy
5:00 PM 64 °F 49 °F 47%  in 12 mi SE 4.6 mph - -   Partly Cloudy
5:00 PM 64.4 °F 48.2 °F 56% 30.15 in 6.2 mi SE 4.6 mph - N/A   Mostly Cloudy
6:00 PM 66.2 °F 46.4 °F 49% 30.15 in 6.2 mi East 8.1 mph - N/A   Mostly Cloudy
7:00 PM 62.6 °F 44.6 °F 52% 30.12 in 6.2 mi Calm Calm - N/A   Scattered Clouds
8:00 PM 59 °F 45 °F 49%  in 12 mi WSW 4.6 mph - -   Smoke
8:00 PM 59.0 °F 44.6 °F 59% 30.15 in 6.2 mi WSW 4.6 mph - N/A   Scattered Clouds
9:00 PM 57.2 °F 44.6 °F 63% 30.18 in 6.2 mi SW 3.5 mph - N/A   Partly Cloudy
10:00 PM 57.2 °F 42.8 °F 59% 30.21 in 6.2 mi SSE 3.5 mph - N/A   Partly Cloudy
11:00 PM 57.2 °F 44.6 °F 63% 30.21 in 6.2 mi Calm Calm - N/A   Partly Cloudy